GW2765 Weather Reports


Display with metric or nautical units.
time (UTC)temp
F
wind
direction
speed
MPH
gust
MPH
rain 1hr
in
rain 24hr
in
rain mn
in
humidity
%
barometer
mb
20260903234532 99 108 1.0 4.0 0.00 0.00 0.00 13 1007.1
20260903234031 99 37 2.0 7.0 0.00 0.00 0.00 15 1007.1
20260903233530 99 72 2.0 7.0 0.00 0.00 0.00 14 1007.1
20260903233029 100 106 2.0 6.0 0.00 0.00 0.00 14 1007.1
20260903232529 100 127 1.0 6.0 0.00 0.00 0.00 14 1007.3
20260903232029 100 214 2.0 5.0 0.00 0.00 0.00 13 1007.3
20260903231530 100 82 2.0 5.0 0.00 0.00 0.00 13 1007.4
20260903231030 100 90 1.0 5.0 0.00 0.00 0.00 13 1007.4
20260903230529 100 173 1.0 5.0 0.00 0.00 0.00 13 1007.4
20260903230029 99 158 2.0 5.0 0.00 0.00 0.00 13 1007.6
20260903225531 99 96 1.0 5.0 0.00 0.00 0.00 13 1007.6
20260903225029 100 61 2.0 5.0 0.00 0.00 0.00 13 1007.7
20260903224529 99 95 2.0 6.0 0.00 0.00 0.00 13 1007.9
20260903224029 100 46 1.0 6.0 0.00 0.00 0.00 13 1007.9
20260903223529 99 238 2.0 6.0 0.00 0.00 0.00 13 1008.0
20260903223030 99 79 2.0 6.0 0.00 0.00 0.00 13 1008.0
20260903222530 98 59 2.0 5.0 0.00 0.00 0.00 13 1008.0
20260903222031 98 51 2.0 5.0 0.00 0.00 0.00 14 1008.1
20260903221530 99 0 2.0 8.0 0.00 0.00 0.00 14 1008.1
20260903221029 99 119 1.0 8.0 0.00 0.00 0.00 13 1008.1
20260903220529 98 69 1.0 4.0 0.00 0.00 0.00 14 1008.3
20260903220257 98 216 1.0 4.0 0.00 0.00 0.00 13 1008.2
20260903215530 99 37 0.0 3.0 0.00 0.00 0.00 13 1008.4
20260903215029 98 176 1.0 5.0 0.00 0.00 0.00 14 1008.4
20260903214530 98 99 1.0 5.0 0.00 0.00 0.00 14 1008.4
20260903214030 98 127 1.0 4.0 0.00 0.00 0.00 14 1008.6
20260903213529 98 4 2.0 3.0 0.00 0.00 0.00 13 1008.7
20260903213029 98 16 2.0 7.0 0.00 0.00 0.00 14 1008.8
20260903212530 97 65 2.0 7.0 0.00 0.00 0.00 13 1008.8
20260903212028 98 19 1.0 6.0 0.00 0.00 0.00 13 1008.9
20260903211530 97 82 1.0 6.0 0.00 0.00 0.00 13 1008.9
20260903211255 97 101 1.0 4.0 0.00 0.00 0.00 12 1009.0
20260903210530 97 123 2.0 6.0 0.00 0.00 0.00 13 1009.1
20260903210030 98 75 1.0 6.0 0.00 0.00 0.00 12 1009.2
20260903205030 97 230 2.0 7.0 0.00 0.00 0.00 12 1009.1
20260903204801 96 195 2.0 7.0 0.00 0.00 0.00 11 1009.2
20260903204030 96 347 1.0 4.0 0.00 0.00 0.00 11 1009.3
20260903203532 96 95 2.0 4.0 0.00 0.00 0.00 12 1009.3
20260903203029 96 76 1.0 4.0 0.00 0.00 0.00 11 1009.3
20260903202528 96 89 1.0 4.0 0.00 0.00 0.00 11 1009.4
20260903202029 95 115 1.0 3.0 0.00 0.00 0.00 12 1009.6
20260903201529 95 73 0.0 3.0 0.00 0.00 0.00 13 1009.6
20260903201030 95 6 1.0 5.0 0.00 0.00 0.00 14 1009.8
20260903200528 96 170 1.0 5.0 0.00 0.00 0.00 16 1009.7
20260903200029 95 60 1.0 4.0 0.00 0.00 0.00 15 1009.8
20260903195528 95 94 2.0 4.0 0.00 0.00 0.00 16 1009.8
20260903195030 95 106 2.0 6.0 0.00 0.00 0.00 15 1009.8
20260903194030 95 66 2.0 6.0 0.00 0.00 0.00 15 1010.1
20260903193530 95 77 1.0 5.0 0.00 0.00 0.00 15 1010.1
20260903193254 94 114 1.0 6.0 0.00 0.00 0.00 16 1010.3
20260903192528 94 142 1.0 6.0 0.00 0.00 0.00 17 1010.3
20260903191530 92 6 1.0 4.0 0.00 0.00 0.00 17 1010.4
20260903191026 93 342 1.0 5.0 0.00 0.00 0.00 16 1010.4
20260903190519 93 61 1.0 5.0 0.00 0.00 0.00 16 1010.7
20260903190013 93 359 1.0 4.0 0.00 0.00 0.00 17 1010.8
20260903185515 93 78 1.0 4.0 0.00 0.00 0.00 16 1010.9
20260903185015 92 105 2.0 5.0 0.00 0.00 0.00 17 1011.1
20260903184516 92 18 2.0 5.0 0.00 0.00 0.00 18 1011.1
20260903184012 92 70 2.0 4.0 0.00 0.00 0.00 18 1011.2
20260903183510 91 56 2.0 5.0 0.00 0.00 0.00 18 1011.4
20260903183011 91 330 1.0 5.0 0.00 0.00 0.00 16 1011.4
20260903182510 92 6 1.0 3.0 0.00 0.00 0.00 19 1011.4
20260903182010 92 27 1.0 3.0 0.00 0.00 0.00 20 1011.5
20260903181512 92 67 0.0 3.0 0.00 0.00 0.00 18 1011.4
20260903180506 91 84 2.0 5.0 0.00 0.00 0.00 21 1011.4
20260903180004 92 226 1.0 5.0 0.00 0.00 0.00 20 1011.6
20260903175728 91 164 1.0 3.0 0.00 0.00 0.00 22 1011.6
20260903175001 91 84 1.0 4.0 0.00 0.00 0.00 21 1011.6
20260903174503 89 39 1.0 4.0 0.00 0.00 0.00 23 1011.7
20260903174002 89 321 0.0 2.0 0.00 0.00 0.00 27 1011.8
20260903173502 89 49 0.0 2.0 0.00 0.00 0.00 24 1011.8
20260903173003 89 233 0.0 3.0 0.00 0.00 0.00 27 1011.8
20260903172501 89 196 0.0 3.0 0.00 0.00 0.00 24 1011.8
20260903172001 88 136 0.0 3.0 0.00 0.00 0.00 26 1011.7
20260903171503 88 214 0.0 3.0 0.00 0.00 0.00 26 1011.8
20260903171001 87 45 0.0 2.0 0.00 0.00 0.00 24 1011.7
20260903170501 87 229 0.0 3.0 0.00 0.00 0.00 26 1011.8
20260903170001 86 79 1.0 3.0 0.00 0.00 0.00 26 1011.7
20260903165504 86 34 1.0 3.0 0.00 0.00 0.00 28 1011.8
20260903165002 86 46 0.0 3.0 0.00 0.00 0.00 26 1011.8
20260903164503 87 143 0.0 2.0 0.00 0.00 0.00 26 1011.7
20260903164002 87 151 0.0 2.0 0.00 0.00 0.00 26 1011.8
20260903163506 86 90 0.0 2.0 0.00 0.00 0.00 28 1011.8
20260903163003 85 123 1.0 2.0 0.00 0.00 0.00 28 1011.8
20260903162722 84 162 1.0 3.0 0.00 0.00 0.00 27 1011.8
20260903162002 83 58 1.0 3.0 0.00 0.00 0.00 29 1011.8
20260903161501 83 331 1.0 3.0 0.00 0.00 0.00 30 1011.7
20260903161001 82 230 1.0 3.0 0.00 0.00 0.00 31 1011.8
20260903160501 82 267 0.0 2.0 0.00 0.00 0.00 31 1011.9
20260903160002 81 293 0.0 2.0 0.00 0.00 0.00 31 1011.9
20260903155502 81 308 0.0 3.0 0.00 0.00 0.00 33 1011.9
20260903155001 80 335 0.0 3.0 0.00 0.00 0.00 34 1012.0
20260903154502 80 340 0.0 1.0 0.00 0.00 0.00 36 1011.9
20260903154229 80 353 0.0 1.0 0.00 0.00 0.00 36 1011.9
20260903153501 79 263 0.0 3.0 0.00 0.00 0.00 40 1011.9
20260903153001 78 336 1.0 3.0 0.00 0.00 0.00 40 1011.9
20260903152725 78 315 1.0 2.0 0.00 0.00 0.00 40 1012.0
20260903152001 78 13 0.0 2.0 0.00 0.00 0.00 42 1011.9
20260903151505 77 346 1.0 3.0 0.00 0.00 0.00 43 1011.9
20260903151001 76 299 1.0 3.0 0.00 0.00 0.00 44 1011.8
20260903150501 77 309 1.0 3.0 0.00 0.00 0.00 45 1011.8
20260903150003 79 345 0.0 2.0 0.00 0.00 0.00 39 1011.8
20260903145503 78 81 0.0 2.0 0.00 0.00 0.00 35 1011.8
20260903145234 77 120 0.0 1.0 0.00 0.00 0.00 38 1011.8
20260903144502 75 135 0.0 1.0 0.00 0.00 0.00 40 1011.6
20260903144002 74 136 0.0 1.0 0.00 0.00 0.00 41 1011.6
20260903143730 74 155 0.0 1.0 0.00 0.00 0.00 43 1011.6
20260903143001 74 200 0.0 1.0 0.00 0.00 0.00 42 1011.4
20260903142504 73 200 0.0 1.0 0.00 0.00 0.00 43 1011.3
20260903142000 73 153 0.0 2.0 0.00 0.00 0.00 43 1011.3
20260903141501 73 179 0.0 2.0 0.00 0.00 0.00 43 1011.3
20260903141001 73 108 0.0 1.0 0.00 0.00 0.00 43 1011.2
20260903140501 73 115 0.0 1.0 0.00 0.00 0.00 42 1011.1
20260903140001 72 128 0.0 1.0 0.00 0.00 0.00 42 1011.1
20260903135502 71 128 0.0 2.0 0.00 0.00 0.00 43 1011.0
20260903135001 70 152 0.0 2.0 0.00 0.00 0.00 44 1010.9
20260903134729 69 167 0.0 0.0 0.00 0.00 0.00 45 1010.9
20260903134001 69 175 0.0 2.0 0.00 0.00 0.00 46 1010.8
20260903133501 69 175 1.0 2.0 0.00 0.00 0.00 46 1010.8
20260903133004 69 134 1.0 2.0 0.00 0.00 0.00 46 1010.8
20260903132501 69 181 0.0 2.0 0.00 0.00 0.00 47 1010.7
20260903132001 68 229 0.0 1.0 0.00 0.00 0.00 49 1010.7
20260903131502 67 215 0.0 0.0 0.00 0.00 0.00 51 1010.7
20260903131001 68 215 0.0 0.0 0.00 0.00 0.00 49 1010.6
20260903130502 68 217 0.0 1.0 0.00 0.00 0.00 49 1010.6
20260903130002 68 217 0.0 1.0 0.00 0.00 0.00 48 1010.5
20260903125504 69 164 0.0 1.0 0.00 0.00 0.00 48 1010.4
20260903125003 69 155 0.0 0.0 0.00 0.00 0.00 47 1010.4
20260903124728 70 156 0.0 1.0 0.00 0.00 0.00 46 1010.3
20260903124002 70 167 0.0 1.0 0.00 0.00 0.00 45 1010.3
20260903123505 70 167 0.0 1.0 0.00 0.00 0.00 44 1010.4
20260903123003 70 167 0.0 1.0 0.00 0.00 0.00 44 1010.3
20260903122503 70 170 0.0 1.0 0.00 0.00 0.00 45 1010.3
20260903122002 71 127 0.0 3.0 0.00 0.00 0.00 44 1010.2
20260903121002 71 184 0.0 0.0 0.00 0.00 0.00 44 1010.3
20260903120503 71 193 0.0 0.0 0.00 0.00 0.00 44 1010.3
20260903120227 71 155 0.0 0.0 0.00 0.00 0.00 43 1010.3
20260903115729 71 155 0.0 0.0 0.00 0.00 0.00 43 1010.4
20260903115002 71 250 0.0 0.0 0.00 0.00 0.00 43 1010.3
20260903114459 71 250 0.0 1.0 0.00 0.00 0.00 42 1010.4
20260903113958 71 238 0.0 1.0 0.00 0.00 0.00 42 1010.5
20260903113723 72 109 0.0 1.0 0.00 0.00 0.00 43 1010.4
20260903112954 72 110 0.0 1.0 0.00 0.00 0.00 42 1010.3
20260903112454 72 106 0.0 1.0 0.00 0.00 0.00 42 1010.3
20260903111954 72 210 0.0 2.0 0.00 0.00 0.00 41 1010.4
20260903111721 73 210 0.0 2.0 0.00 0.00 0.00 41 1010.3
20260903111215 73 241 0.0 2.0 0.00 0.00 0.00 41 1010.4
20260903110450 73 220 0.0 2.0 0.00 0.00 0.00 41 1010.2
20260903110217 73 130 0.0 1.0 0.00 0.00 0.00 41 1010.2
20260903105448 73 118 0.0 1.0 0.00 0.00 0.00 41 1010.3
20260903104947 73 113 0.0 2.0 0.00 0.00 0.00 40 1010.3
20260903104448 74 208 0.0 2.0 0.00 0.00 0.00 40 1010.3
20260903103946 74 160 1.0 2.0 0.00 0.00 0.00 40 1010.3
20260903103444 74 111 1.0 2.0 0.00 0.00 0.00 40 1010.3
20260903102945 74 167 1.0 3.0 0.00 0.00 0.00 41 1010.4
20260903102442 74 167 1.0 3.0 0.00 0.00 0.00 42 1010.4
20260903101941 73 169 1.0 3.0 0.00 0.00 0.00 42 1010.3
20260903101438 73 167 0.0 2.0 0.00 0.00 0.00 43 1010.4
20260903100938 73 157 0.0 2.0 0.00 0.00 0.00 42 1010.3
20260903095932 73 213 0.0 1.0 0.00 0.00 0.00 44 1010.3
20260903095432 73 208 0.0 3.0 0.00 0.00 0.00 44 1010.4
20260903094933 73 210 0.0 3.0 0.00 0.00 0.00 44 1010.5
20260903094433 73 109 0.0 1.0 0.00 0.00 0.00 44 1010.4
20260903093933 74 109 0.0 1.0 0.00 0.00 0.00 43 1010.4
20260903093431 74 189 0.0 1.0 0.00 0.00 0.00 43 1010.5
20260903092932 74 189 0.0 1.0 0.00 0.00 0.00 43 1010.5
20260903092430 74 117 0.0 1.0 0.00 0.00 0.00 43 1010.6
20260903091931 74 117 0.0 0.0 0.00 0.00 0.00 42 1010.6
20260903091430 75 117 0.0 0.0 0.00 0.00 0.00 41 1010.6
20260903091206 75 117 0.0 0.0 0.00 0.00 0.00 40 1010.6
20260903090433 76 117 0.0 1.0 0.00 0.00 0.00 39 1010.6
20260903085931 76 117 0.0 1.0 0.00 0.00 0.00 39 1010.6
20260903085430 76 97 0.0 1.0 0.00 0.00 0.00 38 1010.7
20260903084930 76 97 0.0 2.0 0.00 0.00 0.00 38 1010.6
20260903084430 76 103 0.0 2.0 0.00 0.00 0.00 38 1010.7
20260903083929 76 162 1.0 3.0 0.00 0.00 0.00 38 1010.7
20260903083430 76 175 1.0 3.0 0.00 0.00 0.00 39 1010.7
20260903082930 76 139 1.0 2.0 0.00 0.00 0.00 39 1010.7
20260903082427 76 190 0.0 2.0 0.00 0.00 0.00 39 1010.8
20260903081928 77 217 0.0 2.0 0.00 0.00 0.00 39 1010.8
20260903081655 77 117 0.0 2.0 0.00 0.00 0.00 38 1010.8
20260903080926 77 160 0.0 1.0 0.00 0.00 0.00 38 1010.9
20260903080425 77 161 0.0 2.0 0.00 0.00 0.00 38 1010.9
20260903075924 77 160 0.0 2.0 0.00 0.00 0.00 39 1010.9
20260903075425 77 186 1.0 2.0 0.00 0.00 0.00 39 1010.9
20260903074925 77 134 1.0 2.0 0.00 0.00 0.00 39 1010.9
20260903074424 77 156 0.0 2.0 0.00 0.00 0.00 40 1010.9
20260903074146 77 160 0.0 1.0 0.00 0.00 0.00 39 1010.8
20260903073422 77 153 0.0 2.0 0.00 0.00 0.00 39 1010.9
20260903072922 77 182 1.0 2.0 0.00 0.00 0.00 40 1010.9
20260903072422 77 189 1.0 2.0 0.00 0.00 0.00 40 1010.8
20260903071917 78 168 0.0 2.0 0.00 0.00 0.00 40 1010.8
20260903071643 78 233 1.0 2.0 0.00 0.00 0.00 40 1010.8
20260903071145 78 203 0.0 2.0 0.00 0.00 0.00 39 1010.8
20260903070418 78 215 0.0 2.0 0.00 0.00 0.00 39 1010.9
20260903065918 78 157 0.0 2.0 0.00 0.00 0.00 38 1011.0
20260903065417 79 220 0.0 2.0 0.00 0.00 0.00 39 1011.0
20260903065138 79 191 0.0 1.0 0.00 0.00 0.00 39 1010.9
20260903064418 79 153 0.0 1.0 0.00 0.00 0.00 39 1010.8
20260903064147 80 164 0.0 2.0 0.00 0.00 0.00 38 1010.8
20260903063414 80 200 1.0 3.0 0.00 0.00 0.00 37 1010.8
20260903062914 80 116 1.0 3.0 0.00 0.00 0.00 36 1010.8
20260903062415 80 124 1.0 3.0 0.00 0.00 0.00 36 1010.8
20260903061914 80 134 1.0 3.0 0.00 0.00 0.00 36 1010.7
20260903061415 81 103 1.0 3.0 0.00 0.00 0.00 36 1010.8
20260903060915 81 102 1.0 3.0 0.00 0.00 0.00 36 1010.8
20260903060415 81 203 1.0 3.0 0.00 0.00 0.00 36 1010.8
20260903055916 81 214 1.0 3.0 0.00 0.00 0.00 36 1010.9
20260903055416 81 232 0.0 2.0 0.00 0.00 0.00 36 1010.8
20260903055135 81 166 0.0 1.0 0.00 0.00 0.00 34 1010.8
20260903054411 81 172 0.0 1.0 0.00 0.00 0.00 34 1010.8
20260903053912 82 126 0.0 2.0 0.00 0.00 0.00 34 1011.0
20260903053410 82 108 0.0 2.0 0.00 0.00 0.00 33 1010.9
20260903052909 82 94 0.0 1.0 0.00 0.00 0.00 33 1011.0
20260903052412 83 113 0.0 1.0 0.00 0.00 0.00 33 1011.0
20260903051410 83 124 1.0 4.0 0.00 0.00 0.00 33 1010.9
20260903050911 83 139 1.0 4.0 0.00 0.00 0.00 34 1010.8
20260903050406 83 155 1.0 3.0 0.00 0.00 0.00 34 1010.8
20260903045406 84 179 1.0 4.0 0.00 0.00 0.00 33 1010.8
20260903044906 84 160 1.0 3.0 0.00 0.00 0.00 31 1010.8
20260903044406 85 128 1.0 4.0 0.00 0.00 0.00 31 1010.8
20260903043907 85 108 1.0 4.0 0.00 0.00 0.00 31 1010.7
20260903043636 85 99 1.0 4.0 0.00 0.00 0.00 30 1010.7
20260903042907 85 124 1.0 4.0 0.00 0.00 0.00 30 1010.6
20260903042406 86 111 0.0 2.0 0.00 0.00 0.00 29 1010.6
20260903042137 86 58 1.0 5.0 0.00 0.00 0.00 28 1010.4
20260903041634 87 58 2.0 5.0 0.00 0.00 0.00 26 1010.4
20260903041129 87 76 2.0 5.0 0.00 0.00 0.00 26 1010.4
20260903040631 87 80 1.0 5.0 0.00 0.00 0.00 23 1010.4
20260903035906 88 77 0.0 2.0 0.00 0.00 0.00 24 1010.2
20260903035405 89 62 0.0 2.0 0.00 0.00 0.00 23 1010.1
20260903034906 89 58 1.0 2.0 0.00 0.00 0.00 22 1010.0
20260903034405 89 58 0.0 2.0 0.00 0.00 0.00 22 1009.9
20260903033904 89 79 0.0 2.0 0.00 0.00 0.00 21 1009.9
20260903033404 90 67 1.0 2.0 0.00 0.00 0.00 20 1009.8
20260903032904 90 77 1.0 4.0 0.00 0.00 0.00 18 1009.8
20260903032402 90 48 1.0 5.0 0.00 0.00 0.00 17 1009.8
20260903031906 90 52 1.0 5.0 0.00 0.00 0.00 16 1009.6
20260903031402 90 56 1.0 3.0 0.00 0.00 0.00 15 1009.7
20260903030903 91 2 1.0 3.0 0.00 0.00 0.00 14 1009.5
20260903030402 91 162 1.0 5.0 0.00 0.00 0.00 14 1009.4
20260903025902 92 108 1.0 5.0 0.00 0.00 0.00 13 1009.4
20260903025401 92 88 1.0 4.0 0.00 0.00 0.00 13 1009.3
20260903024902 93 95 2.0 5.0 0.00 0.00 0.00 13 1009.3
20260903024631 93 89 3.0 6.0 0.00 0.00 0.00 13 1009.2
20260903023901 93 169 2.0 6.0 0.00 0.00 0.00 12 1009.2
20260903023402 94 187 1.0 4.0 0.00 0.00 0.00 12 1009.1
20260903022900 94 184 2.0 8.0 0.00 0.00 0.00 12 1009.0
20260903022401 94 172 3.0 8.0 0.00 0.00 0.00 12 1009.0
20260903021902 95 256 4.0 9.0 0.00 0.00 0.00 11 1009.0
20260903021400 95 236 3.0 9.0 0.00 0.00 0.00 10 1009.0
20260903020901 95 250 1.0 9.0 0.00 0.00 0.00 10 1009.0
20260903020402 95 256 2.0 8.0 0.00 0.00 0.00 10 1009.0
20260903015904 96 195 3.0 8.0 0.00 0.00 0.00 9 1009.0
20260903015404 96 224 3.0 8.0 0.00 0.00 0.00 9 1008.9
20260903014903 96 272 2.0 5.0 0.00 0.00 0.00 9 1009.1
20260903013904 97 252 3.0 7.0 0.00 0.00 0.00 9 1009.0
20260903013402 97 315 3.0 7.0 0.00 0.00 0.00 9 1009.0
20260903013129 98 349 3.0 7.0 0.00 0.00 0.00 10 1008.9
20260903012404 98 318 3.0 10.0 0.00 0.00 0.00 9 1008.9
20260903011902 99 320 3.0 10.0 0.00 0.00 0.00 9 1009.0
20260903011403 100 352 3.0 7.0 0.00 0.00 0.00 10 1008.9
20260903010904 100 326 4.0 8.0 0.00 0.00 0.00 9 1008.9
20260903010403 100 329 3.0 9.0 0.00 0.00 0.00 9 1008.8
20260903005902 100 340 3.0 9.0 0.00 0.00 0.00 10 1008.9
20260903005403 101 296 4.0 8.0 0.00 0.00 0.00 9 1008.9
20260903004903 101 302 4.0 7.0 0.00 0.00 0.00 9 1008.9
20260903004402 102 335 4.0 7.0 0.00 0.00 0.00 9 1008.9
20260903003402 102 250 4.0 12.0 0.00 0.00 0.00 9 1008.8
20260903002904 102 257 2.0 8.0 0.00 0.00 0.00 8 1008.7
20260903002404 102 210 2.0 6.0 0.00 0.00 0.00 8 1008.7
20260903001903 102 209 1.0 5.0 0.00 0.00 0.00 11 1008.8
20260903001134 102 29 0.0 4.0 0.00 0.00 0.00 10 1008.9
20260902235903 103 323 0.0 2.0 0.00 0.00 0.00 11 1009.1
20260902235403 102 95 0.0 3.0 0.00 0.00 0.00 10 1009.1
20260902234903 102 47 0.0 3.0 0.00 0.00 0.00 10 1009.1